EW1298 Weather Reports


Display with metric or nautical units.
time (UTC)temp
F
wind
direction
speed
MPH
gust
MPH
rain 1hr
in
rain 24hr
in
rain mn
in
humidity
%
barometer
mb
20190121051515 8 249 2.0 5.0 0.00 0.00 0.00 79 1032.5
20190121050040 10 303 3.0 10.0 0.00 0.00 0.00 77 1032.4
20190121044504 10 314 3.0 10.0 0.00 0.00 0.00 76 1032.3
20190121043221 10 17 5.0 12.0 0.00 0.00 0.00 79 1032.3
20190121041714 9 325 4.0 12.0 0.00 0.00 0.00 79 1032.2
20190121040127 9 355 4.0 10.0 0.00 0.00 0.00 75 1032.2
20190121034637 9 31 7.0 14.0 0.00 0.00 0.00 82 1032.0
20190121033122 9 311 5.0 12.0 0.00 0.00 0.00 78 1032.0
20190121031630 9 22 5.0 12.0 0.00 0.00 0.00 78 1031.8
20190121030100 9 24 9.0 16.0 0.00 0.00 0.00 77 1031.9
20190121024552 9 15 8.0 13.0 0.00 0.00 0.00 75 1031.9
20190121023127 9 360 6.0 12.0 0.00 0.00 0.00 82 1031.9
20190121021532 8 30 5.0 12.0 0.00 0.00 0.00 76 1031.8
20190121020024 8 30 6.0 13.0 0.00 0.00 0.00 72 1031.8
20190121014527 8 13 7.0 14.0 0.00 0.00 0.00 76 1031.6
20190121013013 8 355 5.0 15.0 0.00 0.00 0.00 73 1031.8
20190121011503 8 40 9.0 18.0 0.00 0.00 0.00 78 1031.8
20190121010136 7 355 5.0 12.0 0.00 0.00 0.00 76 1031.9
20190121004644 7 342 7.0 17.0 0.00 0.00 0.00 74 1032.0
20190121003115 7 355 8.0 16.0 0.00 0.00 0.00 74 1032.0
20190121001632 7 338 9.0 17.0 0.00 0.00 0.00 78 1032.2
20190121000129 7 15 6.0 11.0 0.00 0.00 0.00 79 1032.2
20190120234619 6 5 8.0 14.0 0.00 0.00 0.00 70 1032.2
20190120233054 6 32 5.0 13.0 0.00 0.00 0.00 74 1032.2
20190120231604 6 338 5.0 15.0 0.00 0.00 0.00 74 1032.1
20190120230053 6 45 6.0 14.0 0.00 0.00 0.00 81 1032.1
20190120224530 6 338 6.0 17.0 0.00 0.00 0.00 76 1031.9
20190120223018 6 22 6.0 17.0 0.00 0.00 0.00 70 1032.0
20190120221550 6 21 8.0 14.0 0.00 0.00 0.00 72 1032.0
20190120220005 6 360 8.0 18.0 0.00 0.00 0.00 80 1031.7
20190120214632 6 355 6.0 18.0 0.00 0.00 0.00 78 1031.7
20190120213218 5 24 7.0 17.0 0.00 0.00 0.00 71 1031.7
20190120211639 5 360 9.0 16.0 0.00 0.00 0.00 76 1031.7
20190120210203 5 17 5.0 12.0 0.00 0.00 0.00 76 1031.5
20190120204556 5 355 8.0 18.0 0.00 0.00 0.00 70 1031.6
20190120203118 6 20 7.0 15.0 0.00 0.00 0.00 72 1031.4
20190120201555 5 323 8.0 15.0 0.00 0.00 0.00 71 1031.2
20190120200146 5 5 9.0 16.0 0.00 0.00 0.00 74 1031.1
20190120194607 5 355 8.0 15.0 0.00 0.00 0.00 72 1030.8
20190120193116 5 20 6.0 15.0 0.00 0.00 0.00 76 1030.8
20190120191604 5 339 9.0 21.0 0.00 0.00 0.00 77 1030.6
20190120190025 5 5 9.0 18.0 0.00 0.00 0.00 73 1030.5
20190120184511 5 355 9.0 16.0 0.00 0.00 0.00 75 1030.6
20190120183004 7 17 11.0 18.0 0.00 0.00 0.00 74 1030.5
20190120181657 5 355 7.0 15.0 0.00 0.00 0.00 72 1030.6
20190120180216 5 5 9.0 17.0 0.00 0.00 0.00 75 1030.5
20190120174629 6 24 12.0 20.0 0.00 0.00 0.00 74 1030.5
20190120173120 5 5 9.0 19.0 0.00 0.00 0.00 77 1030.4
20190120171704 5 19 14.0 21.0 0.00 0.00 0.00 80 1030.4
20190120170129 5 5 13.0 24.0 0.00 0.00 0.00 75 1030.3
20190120164552 5 348 10.0 16.0 0.00 0.00 0.00 74 1030.3
20190120163043 5 9 9.0 18.0 0.00 0.00 0.00 75 1030.1
20190120161553 5 18 9.0 20.0 0.00 0.00 0.00 78 1030.1
20190120160024 5 48 9.0 17.0 0.00 0.00 0.00 78 1029.9
20190120154522 4 20 11.0 21.0 0.00 0.00 0.00 82 1029.6
20190120153025 5 25 14.0 23.0 0.00 0.00 0.00 76 1029.3
20190120151518 4 18 14.0 22.0 0.00 0.00 0.00 81 1029.1
20190120150003 4 23 9.0 22.0 0.00 0.00 0.00 79 1029.0
20190120144647 4 14 13.0 19.0 0.00 0.00 0.00 80 1028.8
20190120143218 3 11 8.0 21.0 0.00 0.00 0.00 78 1028.7
20190120141626 4 341 8.0 22.0 0.00 0.00 0.00 74 1028.6
20190120140059 4 28 9.0 25.0 0.00 0.00 0.00 81 1028.3
20190120134644 4 313 11.0 20.0 0.00 0.00 0.00 74 1028.1
20190120133116 4 333 9.0 28.0 0.00 0.00 0.00 72 1028.0
20190120131607 4 355 12.0 24.0 0.00 0.00 0.00 80 1027.7
20190120130130 4 79 14.0 22.0 0.00 0.00 0.00 78 1027.4
20190120124549 4 360 9.0 19.0 0.00 0.00 0.00 71 1027.1
20190120123101 4 5 9.0 20.0 0.00 0.00 0.00 72 1026.8
20190120121612 4 5 11.0 22.0 0.00 0.00 0.00 81 1026.5
20190120120042 5 326 11.0 24.0 0.00 0.00 0.00 77 1026.5
20190120114528 5 5 9.0 22.0 0.00 0.00 0.00 77 1026.2
20190120113201 5 336 10.0 21.0 0.00 0.00 0.00 81 1026.0
20190120111652 5 31 12.0 20.0 0.00 0.00 0.00 76 1026.0
20190120110208 5 15 11.0 19.0 0.00 0.00 0.00 75 1025.9
20190120104616 6 15 10.0 23.0 0.00 0.00 0.00 76 1025.6
20190120103139 6 10 13.0 20.0 0.00 0.00 0.00 75 1025.5
20190120101558 6 18 9.0 22.0 0.00 0.00 0.00 79 1025.4
20190120100115 6 318 7.0 17.0 0.00 0.00 0.00 70 1025.2
20190120094549 6 350 9.0 20.0 0.00 0.00 0.00 82 1025.0
20190120093143 6 326 11.0 20.0 0.00 0.00 0.00 80 1024.9
20190120091535 5 26 5.0 12.0 0.00 0.00 0.00 80 1025.0
20190120090028 4 309 8.0 16.0 0.00 0.00 0.00 78 1025.1
20190120084513 4 305 4.0 14.0 0.00 0.00 0.00 79 1025.1
20190120083011 4 333 7.0 15.0 0.00 0.00 0.00 79 1025.2
20190120081503 5 289 6.0 14.0 0.00 0.00 0.00 79 1025.0
20190120080209 5 325 5.0 10.0 0.00 0.00 0.00 80 1024.8
20190120074647 5 315 5.0 12.0 0.00 0.00 0.00 78 1024.7
20190120073202 6 301 4.0 15.0 0.00 0.00 0.00 71 1024.7
20190120071711 6 325 7.0 16.0 0.00 0.00 0.00 67 1024.5
20190120070124 6 349 8.0 15.0 0.00 0.00 0.00 73 1024.3
20190120064618 7 339 6.0 15.0 0.00 0.00 0.00 69 1024.5
20190120063050 7 340 7.0 15.0 0.00 0.00 0.00 72 1024.2
20190120061617 7 338 4.0 13.0 0.00 0.00 0.00 68 1024.1
20190120060033 7 355 5.0 17.0 0.00 0.00 0.00 70 1024.0
20190120054551 7 17 6.0 14.0 0.00 0.00 0.00 71 1024.0
20190120053022 7 318 6.0 16.0 0.00 0.00 0.00 75 1023.9